Ringgold, GA (30736)

10:27 PM EST on February 08, 2016 (GMT -0500)
Ringgold | | Change Station
CLOSE
Current Station
Personal Weather Station
Location: Ringgold, GA
Elevation: 696 ft
Nearby Weather Stations
Active Advisory: Winter Weather Advisory

Elev 696 ft 34.96 °N, 85.17 °W | Updated 17 minutes ago

Overcast
Overcast
35.1 °F
Feels Like 31 °F
N
4.2
Wind Variable Wind from NW

Today
High -- | Low -- °F
--% Chance of Precip.
Yesterday
High -- | Low -- °F
Precip. -- in
Pressure 29.87 in
Visibility 10.0 miles
Clouds Few 3500 ft
Mostly Cloudy 13000 ft
Windchill 31 °F
Dew Point 35 °F
Humidity 98%
Rainfall 0.00 in
Snow Depth Not available.
7:33 AM 6:16 PM
New Moon, 0% visible
METAR KCHA 090253Z 25009KT 10SM FEW035 BKN130 02/M05 A2987 RMK AO2 SLP114 60000 T00171050 50007
Pressure 29.87 in
Visibility 10.0 miles
Clouds Few 3500 ft
Mostly Cloudy 13000 ft
Windchill 31 °F
Dew Point 35 °F
Humidity 98%
Rainfall 0.00 in
Snow Depth Not available.
7:33 AM 6:16 PM
New Moon, 0% visible
METAR KCHA 090253Z 25009KT 10SM FEW035 BKN130 02/M05 A2987 RMK AO2 SLP114 60000 T00171050 50007

10-Day Weather Forecast

Almanac

Astronomy

Feb. 08, 2016 Rise Set
Actual Time
Civil Twilight
Nautical Twilight
Astronomical Twilight
Moon
Length of Visible Light
Length of Day
Tomorrow will be .
, % of the Moon is Illuminated

Today's Extremes

State Highs State Lows

Community

WunderPhotos

Upload Photos

1,891,527 photos uploaded!

WunderBlog® & News

Nearby

Air Quality

  Air Quality AQ Index Pollutant
Not available.

Snow Depth

Station Depth Elevation

Earthquake Activity

City Distance Mag. Time & Date
Minimum magnitude displayed is 2.5.

Coastal Water Temperatures

Place Temperature

Stations

Nearby Weather Stations

Station Location Temp. Windchill Dew Point Humidity Wind Precip. Elev Updated Type
                   

Watches & Warnings

Winter Weather Advisory
Issued: 8:59 PM EST Feb. 8, 2016 – National Weather Service

... Winter Weather Advisory remains in effect until 10 am EST
Wednesday...

* locations... for higher elevations in portions of far north
Georgia.

* Hazard types... accumulating snow and areas of black ice.

* Accumulations... 1 to 2 inches of snow with isolated higher
amounts possible at elevations above 1500 feet.

* Timing... through 10 am Wednesday.

* Impacts... snow/ice on roads will create hazardous driving
conditions. Even the lower elevations of north Georgia will
see the potential for slick spots on roadways due to black ice
tonight and into Wednesday morning as any lingering moisture
on the roads will re-freeze.

Precautionary/preparedness actions...

A Winter Weather Advisory for snow means that periods of snow
will cause primarily travel difficulties. Be prepared for snow
covered roads and limited visibilities... and use caution while
driving.